Wetterdaten: aktuell Freitag, 21.02.2020 08:30
Datum Zeit Temp. -10cm Temp. 5cm Temp. 2m Feuchte 2m Luftdruck Regen Wind Richtung Richtung Taupunkt Windchill Windben
21.02.2020 08:30 4,7 C 5,2 C 5,7 C 75 % 1022,4 hPa 0,0 l/m 10,4 km/h (2 Bft) W-SW 247 1,6 C 3,4 C 7,7 km/h (2 Bft)
21.02.2020 08:28 4,7 C 5,2 C 5,7 C 75 % 1022,4 hPa 0,0 l/m 10,9 km/h (2 Bft) NW 315 1,6 C 3,3 C 18,3 km/h (3 Bft)
21.02.2020 08:26 4,7 C 5,2 C 5,7 C 76 % 1022,4 hPa 0,0 l/m 11,1 km/h (2 Bft) N 360 1,8 C 3,3 C 8,2 km/h (2 Bft)
21.02.2020 08:24 4,7 C 5,2 C 5,8 C 76 % 1022,4 hPa 0,0 l/m 10,9 km/h (2 Bft) NW 315 1,9 C 3,4 C 10,6 km/h (2 Bft)
21.02.2020 08:22 4,7 C 5,3 C 5,8 C 76 % 1021,8 hPa 0,0 l/m 10,4 km/h (2 Bft) SW 225 1,9 C 3,5 C 19,1 km/h (3 Bft)
21.02.2020 08:20 4,7 C 5,4 C 5,8 C 76 % 1021,8 hPa 0,0 l/m 10,1 km/h (2 Bft) S 180 1,9 C 3,6 C 9,9 km/h (2 Bft)
21.02.2020 08:18 4,7 C 5,4 C 5,8 C 77 % 1021,8 hPa 0,0 l/m 9,2 km/h (2 Bft) S-SO 157 2,1 C 3,8 C 14,0 km/h (3 Bft)
21.02.2020 08:16 4,7 C 5,6 C 5,8 C 77 % 1021,8 hPa 0,0 l/m 9,4 km/h (2 Bft) NO 45 2,1 C 3,7 C 21,0 km/h (4 Bft)
21.02.2020 08:14 4,7 C 5,6 C 5,8 C 77 % 1021,8 hPa 0,0 l/m 9,2 km/h (2 Bft) SW 225 2,1 C 3,8 C 9,7 km/h (2 Bft)
21.02.2020 08:12 4,7 C 5,5 C 5,7 C 77 % 1021,8 hPa 0,0 l/m 9,9 km/h (2 Bft) W-SW 247 2,0 C 3,5 C 11,1 km/h (2 Bft)
21.02.2020 08:10 4,7 C 5,4 C 5,7 C 78 % 1021,8 hPa 0,0 l/m 10,4 km/h (2 Bft) W-NW 292 2,2 C 3,4 C 16,2 km/h (3 Bft)
21.02.2020 08:08 4,7 C 5,2 C 5,6 C 78 % 1021,8 hPa 0,0 l/m 10,6 km/h (2 Bft) W-SW 247 2,1 C 3,3 C 6,5 km/h (2 Bft)
21.02.2020 08:06 4,7 C 4,9 C 5,5 C 78 % 1021,8 hPa 0,0 l/m 11,1 km/h (2 Bft) W 270 2,0 C 3,0 C 16,2 km/h (3 Bft)
21.02.2020 08:04 4,7 C 4,8 C 5,5 C 78 % 1021,8 hPa 0,0 l/m 10,9 km/h (2 Bft) W-SW 247 2,0 C 3,1 C 20,3 km/h (4 Bft)
21.02.2020 08:02 4,7 C 4,7 C 5,5 C 78 % 1020,6 hPa 0,0 l/m 10,9 km/h (2 Bft) NW 315 2,0 C 3,1 C 13,8 km/h (3 Bft)
21.02.2020 08:00 4,7 C 4,6 C 5,4 C 79 % 1020,6 hPa 0,0 l/m 9,7 km/h (2 Bft) NW 315 2,1 C 3,2 C 14,0 km/h (3 Bft)
21.02.2020 07:58 4,7 C 4,6 C 5,3 C 79 % 1020,6 hPa 0,0 l/m 8,7 km/h (2 Bft) O-NO 67 2,0 C 3,3 C 15,9 km/h (3 Bft)
21.02.2020 07:56 4,7 C 4,6 C 5,3 C 79 % 1020,6 hPa 0,0 l/m 9,2 km/h (2 Bft) S-SO 157 2,0 C 3,2 C 23,9 km/h (4 Bft)
21.02.2020 07:54 4,7 C 4,6 C 5,3 C 79 % 1020,6 hPa 0,0 l/m 8,7 km/h (2 Bft) NW 315 2,0 C 3,3 C 11,1 km/h (2 Bft)
21.02.2020 07:52 4,7 C 4,7 C 5,3 C 79 % 1020,6 hPa 0,0 l/m 8,9 km/h (2 Bft) W-SW 247 2,0 C 3,3 C 13,0 km/h (3 Bft)
21.02.2020 07:50 4,7 C 4,4 C 5,3 C 79 % 1020,6 hPa 0,0 l/m 9,4 km/h (2 Bft) NW 315 2,0 C 3,1 C 8,4 km/h (2 Bft)
21.02.2020 07:48 4,7 C 4,3 C 5,3 C 79 % 1020,6 hPa 0,0 l/m 9,7 km/h (2 Bft) O-SO 112 2,0 C 3,1 C 8,2 km/h (2 Bft)
21.02.2020 07:46 4,7 C 4,4 C 5,3 C 79 % 1020,6 hPa 0,0 l/m 10,6 km/h (2 Bft) W 270 2,0 C 2,9 C 26,1 km/h (4 Bft)
21.02.2020 07:44 4,7 C 4,6 C 5,3 C 79 % 1020,6 hPa 0,0 l/m 10,4 km/h (2 Bft) NO 45 2,0 C 2,9 C 15,4 km/h (3 Bft)
21.02.2020 07:42 4,7 C 4,4 C 5,2 C 79 % 1019,8 hPa 0,0 l/m 10,1 km/h (2 Bft) S-SO 157 1,9 C 2,9 C 24,6 km/h (4 Bft)
21.02.2020 07:40 4,7 C 4,4 C 5,2 C 79 % 1019,8 hPa 0,0 l/m 10,6 km/h (2 Bft) N-NW 337 1,9 C 2,8 C 8,4 km/h (2 Bft)
21.02.2020 07:38 4,7 C 4,3 C 5,2 C 80 % 1019,8 hPa 0,0 l/m 11,1 km/h (2 Bft) W-SW 247 2,0 C 2,7 C 8,9 km/h (2 Bft)
21.02.2020 07:36 4,7 C 4,3 C 5,2 C 80 % 1019,8 hPa 0,0 l/m 11,1 km/h (2 Bft) W-SW 247 2,0 C 2,7 C 11,3 km/h (2 Bft)
21.02.2020 07:34 4,7 C 4,3 C 5,1 C 80 % 1019,8 hPa 0,0 l/m 10,9 km/h (2 Bft) S-SW 202 1,9 C 2,6 C 15,9 km/h (3 Bft)
21.02.2020 07:32 4,7 C 4,2 C 5,1 C 80 % 1019,8 hPa 0,0 l/m 10,4 km/h (2 Bft) S-SO 157 1,9 C 2,7 C 12,6 km/h (3 Bft)
21.02.2020 07:30 4,7 C 4,1 C 5,0 C 80 % 1019,8 hPa 0,0 l/m 10,4 km/h (2 Bft) S 180 1,8 C 2,6 C 15,9 km/h (3 Bft)
21.02.2020 07:28 4,7 C 4,0 C 5,0 C 80 % 1019,8 hPa 0,0 l/m 9,4 km/h (2 Bft) S 180 1,8 C 2,8 C 21,0 km/h (4 Bft)
21.02.2020 07:26 4,7 C 4,1 C 5,0 C 80 % 1019,8 hPa 0,0 l/m 8,7 km/h (2 Bft) O-NO 67 1,8 C 3,0 C 13,8 km/h (3 Bft)
21.02.2020 07:24 4,7 C 4,0 C 4,9 C 80 % 1019,8 hPa 0,0 l/m 8,7 km/h (2 Bft) W 270 1,7 C 2,8 C 7,7 km/h (2 Bft)
21.02.2020 07:22 4,7 C 4,0 C 4,9 C 81 % 1019,4 hPa 0,0 l/m 8,7 km/h (2 Bft) S 180 1,9 C 2,8 C 15,7 km/h (3 Bft)
21.02.2020 07:20 4,7 C 4,0 C 4,9 C 81 % 1019,4 hPa 0,0 l/m 8,0 km/h (2 Bft) N-NW 337 1,9 C 3,0 C 12,3 km/h (3 Bft)
21.02.2020 07:18 4,7 C 3,9 C 4,9 C 81 % 1019,4 hPa 0,0 l/m 8,0 km/h (2 Bft) NW 315 1,9 C 3,0 C 13,8 km/h (3 Bft)
21.02.2020 07:16 4,7 C 4,0 C 4,9 C 81 % 1019,4 hPa 0,0 l/m 7,5 km/h (2 Bft) W 270 1,9 C 3,2 C 5,8 km/h (2 Bft)
21.02.2020 07:14 4,7 C 3,9 C 4,8 C 81 % 1019,4 hPa 0,0 l/m 7,2 km/h (2 Bft) N-NO 22 1,8 C 3,1 C 10,9 km/h (2 Bft)
21.02.2020 07:12 4,7 C 4,0 C 4,8 C 81 % 1019,4 hPa 0,0 l/m 7,0 km/h (2 Bft) W 270 1,8 C 3,2 C 16,4 km/h (3 Bft)
21.02.2020 07:10 4,7 C 4,1 C 4,6 C 81 % 1019,4 hPa 0,0 l/m 6,5 km/h (2 Bft) O 90 1,6 C 3,1 C 6,3 km/h (2 Bft)
21.02.2020 07:08 4,7 C 4,1 C 4,6 C 81 % 1019,4 hPa 0,0 l/m 6,3 km/h (2 Bft) SW 225 1,6 C 3,2 C 11,1 km/h (2 Bft)
21.02.2020 07:06 4,7 C 4,0 C 4,6 C 81 % 1019,4 hPa 0,0 l/m 6,5 km/h (2 Bft) N-NO 22 1,6 C 3,1 C 12,6 km/h (3 Bft)
21.02.2020 07:04 4,7 C 4,0 C 4,6 C 81 % 1019,4 hPa 0,0 l/m 6,8 km/h (2 Bft) O-SO 112 1,6 C 3,0 C 6,5 km/h (2 Bft)
21.02.2020 07:02 4,7 C 3,9 C 4,6 C 81 % 1018,4 hPa 0,0 l/m 7,2 km/h (2 Bft) SW 225 1,6 C 2,9 C 11,1 km/h (2 Bft)
21.02.2020 07:00 4,7 C 3,9 C 4,6 C 81 % 1018,4 hPa 0,0 l/m 7,7 km/h (2 Bft) S-SO 157 1,6 C 2,7 C 5,3 km/h (1 Bft)
21.02.2020 06:58 4,7 C 3,5 C 4,5 C 81 % 1018,4 hPa 0,0 l/m 8,2 km/h (2 Bft) S 180 1,5 C 2,5 C 7,2 km/h (2 Bft)
21.02.2020 06:56 4,7 C 3,8 C 4,6 C 81 % 1018,4 hPa 0,0 l/m 8,9 km/h (2 Bft) W-NW 292 1,6 C 2,4 C 8,7 km/h (2 Bft)
21.02.2020 06:54 4,7 C 3,9 C 4,6 C 81 % 1018,4 hPa 0,0 l/m 9,9 km/h (2 Bft) N-NW 337 1,6 C 2,2 C 6,8 km/h (2 Bft)
21.02.2020 06:52 4,7 C 4,0 C 4,8 C 81 % 1018,4 hPa 0,0 l/m 9,7 km/h (2 Bft) S-SO 157 1,8 C 2,5 C 8,4 km/h (2 Bft)
21.02.2020 06:50 4,7 C 4,1 C 4,8 C 81 % 1018,4 hPa 0,0 l/m 10,6 km/h (2 Bft) S 180 1,8 C 2,3 C 24,1 km/h (4 Bft)
21.02.2020 06:48 4,6 C 4,1 C 4,8 C 81 % 1018,4 hPa 0,0 l/m 10,1 km/h (2 Bft) W-SW 247 1,8 C 2,4 C 8,0 km/h (2 Bft)
21.02.2020 06:46 4,7 C 4,2 C 4,8 C 81 % 1018,4 hPa 0,0 l/m 10,1 km/h (2 Bft) S 180 1,8 C 2,4 C 35,0 km/h (5 Bft)
21.02.2020 06:44 4,6 C 4,1 C 4,8 C 81 % 1018,4 hPa 0,0 l/m 9,2 km/h (2 Bft) S-SO 157 1,8 C 2,6 C 18,1 km/h (3 Bft)
21.02.2020 06:42 4,7 C 4,2 C 4,8 C 81 % 1018,0 hPa 0,0 l/m 9,4 km/h (2 Bft) SO 135 1,8 C 2,6 C 14,2 km/h (3 Bft)
21.02.2020 06:40 4,7 C 4,1 C 4,6 C 81 % 1018,0 hPa 0,0 l/m 10,1 km/h (2 Bft) NW 315 1,6 C 2,2 C 8,0 km/h (2 Bft)
21.02.2020 06:38 4,7 C 4,0 C 4,5 C 81 % 1018,0 hPa 0,0 l/m 9,9 km/h (2 Bft) W 270 1,5 C 2,1 C 27,8 km/h (4 Bft)
21.02.2020 06:36 4,7 C 3,9 C 4,5 C 81 % 1018,0 hPa 0,0 l/m 8,9 km/h (2 Bft) O-NO 67 1,5 C 2,3 C 30,2 km/h (5 Bft)
21.02.2020 06:34 4,7 C 3,9 C 4,5 C 82 % 1018,0 hPa 0,0 l/m 10,6 km/h (2 Bft) SW 225 1,7 C 1,9 C 10,1 km/h (2 Bft)
21.02.2020 06:32 4,7 C 4,0 C 4,5 C 82 % 1018,0 hPa 0,0 l/m 10,4 km/h (2 Bft) S 180 1,7 C 2,0 C 27,8 km/h (4 Bft)
21.02.2020 06:30 4,7 C 4,1 C 4,5 C 82 % 1018,0 hPa 0,0 l/m 9,9 km/h (2 Bft) SW 225 1,7 C 2,1 C 10,4 km/h (2 Bft)
21.02.2020 06:28 4,7 C 4,0 C 4,5 C 82 % 1018,0 hPa 0,0 l/m 9,7 km/h (2 Bft) S-SO 157 1,7 C 2,1 C 8,4 km/h (2 Bft)
21.02.2020 06:26 4,6 C 4,1 C 4,5 C 82 % 1018,0 hPa 0,0 l/m 9,2 km/h (2 Bft) W-NW 292 1,7 C 2,2 C 8,0 km/h (2 Bft)
21.02.2020 06:24 4,6 C 4,1 C 4,5 C 82 % 1018,0 hPa 0,0 l/m 8,9 km/h (2 Bft) S 180 1,7 C 2,3 C 17,4 km/h (3 Bft)
21.02.2020 06:22 4,6 C 4,1 C 4,5 C 82 % 1017,6 hPa 0,0 l/m 9,2 km/h (2 Bft) W-SW 247 1,7 C 2,2 C 9,4 km/h (2 Bft)
21.02.2020 06:20 4,6 C 4,1 C 4,5 C 82 % 1017,6 hPa 0,0 l/m 8,9 km/h (2 Bft) S 180 1,7 C 2,3 C 11,3 km/h (2 Bft)
21.02.2020 06:18 4,6 C 4,2 C 4,5 C 81 % 1017,6 hPa 0,0 l/m 9,7 km/h (2 Bft) O-SO 112 1,5 C 2,1 C 15,0 km/h (3 Bft)
21.02.2020 06:16 4,6 C 4,2 C 4,4 C 82 % 1017,6 hPa 0,0 l/m 9,4 km/h (2 Bft) S 180 1,6 C 2,1 C 10,9 km/h (2 Bft)
21.02.2020 06:14 4,6 C 4,2 C 4,4 C 82 % 1017,6 hPa 0,0 l/m 9,7 km/h (2 Bft) W-SW 247 1,6 C 2,0 C 11,1 km/h (2 Bft)
21.02.2020 06:12 4,6 C 3,9 C 4,3 C 82 % 1017,6 hPa 0,0 l/m 7,7 km/h (2 Bft) W 270 1,5 C 2,4 C 9,2 km/h (2 Bft)
21.02.2020 06:10 4,6 C 3,9 C 4,3 C 82 % 1017,6 hPa 0,0 l/m 7,7 km/h (2 Bft) W 270 1,5 C 2,4 C 9,2 km/h (2 Bft)
21.02.2020 06:08 4,6 C 3,9 C 4,3 C 82 % 1017,6 hPa 0,0 l/m 7,7 km/h (2 Bft) W 270 1,5 C 2,4 C 9,2 km/h (2 Bft)
21.02.2020 06:06 4,6 C 3,9 C 4,3 C 82 % 1017,6 hPa 0,0 l/m 7,7 km/h (2 Bft) W 270 1,5 C 2,4 C 26,1 km/h (4 Bft)
21.02.2020 06:04 4,6 C 3,9 C 4,3 C 82 % 1017,6 hPa 0,0 l/m 7,7 km/h (2 Bft) W 270 1,5 C 2,4 C 9,2 km/h (2 Bft)
21.02.2020 06:02 4,6 C 3,9 C 4,3 C 82 % 1017,2 hPa 0,0 l/m 7,7 km/h (2 Bft) S-SW 202 1,5 C 2,4 C 26,1 km/h (4 Bft)
21.02.2020 06:00 4,6 C 3,9 C 4,3 C 82 % 1017,2 hPa 0,0 l/m 8,4 km/h (2 Bft) NO 45 1,5 C 2,2 C 3,1 km/h (1 Bft)
21.02.2020 05:58 4,6 C 4,0 C 4,4 C 82 % 1017,2 hPa 0,0 l/m 8,2 km/h (2 Bft) W-NW 292 1,6 C 2,4 C 15,2 km/h (3 Bft)
21.02.2020 05:56 4,6 C 4,1 C 4,4 C 82 % 1017,2 hPa 0,0 l/m 7,7 km/h (2 Bft) S-SO 157 1,6 C 2,5 C 12,1 km/h (2 Bft)
21.02.2020 05:54 4,6 C 4,2 C 4,4 C 81 % 1017,2 hPa 0,0 l/m 8,0 km/h (2 Bft) S 180 1,4 C 2,4 C 12,6 km/h (3 Bft)
21.02.2020 05:52 4,6 C 4,2 C 4,4 C 81 % 1017,2 hPa 0,0 l/m 7,7 km/h (2 Bft) S-SO 157 1,4 C 2,5 C 8,0 km/h (2 Bft)
21.02.2020 05:50 4,6 C 4,1 C 4,2 C 81 % 1017,2 hPa 0,0 l/m 7,7 km/h (2 Bft) W-SW 247 1,2 C 2,3 C 12,3 km/h (3 Bft)
21.02.2020 05:48 4,6 C 4,0 C 4,2 C 81 % 1017,2 hPa 0,0 l/m 8,0 km/h (2 Bft) W-NW 292 1,2 C 2,2 C 5,8 km/h (2 Bft)
21.02.2020 05:46 4,6 C 4,0 C 4,2 C 81 % 1017,2 hPa 0,0 l/m 8,2 km/h (2 Bft) S-SW 202 1,2 C 2,1 C 23,4 km/h (4 Bft)
21.02.2020 05:44 4,6 C 4,1 C 4,2 C 81 % 1017,2 hPa 0,0 l/m 8,4 km/h (2 Bft) W-NW 292 1,2 C 2,1 C 13,8 km/h (3 Bft)
21.02.2020 05:42 4,6 C 4,2 C 4,3 C 81 % 1017,4 hPa 0,1 l/m 8,4 km/h (2 Bft) W 270 1,3 C 2,2 C 9,9 km/h (2 Bft)
21.02.2020 05:40 4,6 C 4,4 C 4,2 C 81 % 1017,4 hPa 0,0 l/m 8,0 km/h (2 Bft) W-SW 247 1,2 C 2,2 C 9,7 km/h (2 Bft)
21.02.2020 05:38 4,6 C 4,2 C 3,8 C 81 % 1017,4 hPa 0,0 l/m 8,0 km/h (2 Bft) W 270 0,8 C 1,7 C 23,4 km/h (4 Bft)
21.02.2020 05:36 4,6 C 3,7 C 3,3 C 80 % 1017,4 hPa 0,0 l/m 6,8 km/h (2 Bft) W 270 0,2 C 1,5 C 8,0 km/h (2 Bft)
21.02.2020 05:34 4,6 C 3,5 C 3,1 C 80 % 1017,4 hPa 0,0 l/m 7,2 km/h (2 Bft) W-NW 292 -0,0 C 1,1 C 17,4 km/h (3 Bft)
21.02.2020 05:32 4,6 C 3,3 C 2,9 C 81 % 1017,4 hPa 0,0 l/m 7,0 km/h (2 Bft) W-SW 247 -0,0 C 1,0 C 9,2 km/h (2 Bft)
21.02.2020 05:30 4,6 C 3,1 C 2,9 C 81 % 1017,4 hPa 0,0 l/m 7,0 km/h (2 Bft) NW 315 -0,0 C 1,0 C 10,1 km/h (2 Bft)
21.02.2020 05:28 4,6 C 3,1 C 2,8 C 81 % 1017,4 hPa 0,0 l/m 6,0 km/h (2 Bft) W-SW 247 -0,1 C 1,2 C 9,7 km/h (2 Bft)
21.02.2020 05:26 4,6 C 3,0 C 2,8 C 81 % 1017,4 hPa 0,1 l/m 5,6 km/h (1 Bft) W-SW 247 -0,1 C 1,3 C 6,0 km/h (2 Bft)
21.02.2020 05:24 4,6 C 3,0 C 2,9 C 81 % 1017,4 hPa 0,0 l/m 5,1 km/h (1 Bft) S 180 -0,0 C 1,7 C 20,3 km/h (4 Bft)
21.02.2020 05:22 4,6 C 3,0 C 2,9 C 81 % 1017,4 hPa 0,0 l/m 3,6 km/h (1 Bft) S 180 -0,0 C 2,9 C 12,3 km/h (3 Bft)
21.02.2020 05:20 4,6 C 3,0 C 2,9 C 81 % 1017,4 hPa 0,0 l/m 2,9 km/h (1 Bft) S 180 -0,0 C 2,9 C 6,3 km/h (2 Bft)
21.02.2020 05:18 4,6 C 3,0 C 2,9 C 81 % 1017,4 hPa 0,0 l/m 2,4 km/h (1 Bft) W 270 -0,0 C 2,9 C 3,4 km/h (1 Bft)
21.02.2020 05:16 4,6 C 3,0 C 2,9 C 81 % 1017,4 hPa 0,0 l/m 1,7 km/h (1 Bft) W-NW 292 -0,0 C 2,9 C 2,4 km/h (1 Bft)
21.02.2020 05:14 4,6 C 2,9 C 2,9 C 81 % 1017,4 hPa 0,0 l/m 1,7 km/h (1 Bft) W-NW 292 -0,0 C 2,9 C 4,8 km/h (1 Bft)
21.02.2020 05:12 4,6 C 2,8 C 2,9 C 81 % 1017,4 hPa 0,0 l/m 1,7 km/h (1 Bft) W-NW 292 -0,0 C 2,9 C 3,4 km/h (1 Bft)
21.02.2020 05:10 4,6 C 2,8 C 2,9 C 81 % 1017,4 hPa 0,0 l/m 2,4 km/h (1 Bft) S 180 -0,0 C 2,9 C 4,3 km/h (1 Bft)
21.02.2020 05:08 4,6 C 2,9 C 2,9 C 80 % 1017,4 hPa 0,0 l/m 2,7 km/h (1 Bft) W-NW 292 -0,2 C 2,9 C 0,0 km/h (0 Bft)
21.02.2020 05:06 4,6 C 3,0 C 2,9 C 80 % 1017,4 hPa 0,0 l/m 3,9 km/h (1 Bft) W-SW 247 -0,2 C 2,9 C 6,3 km/h (2 Bft)
21.02.2020 05:04 4,6 C 3,0 C 3,0 C 79 % 1017,4 hPa 0,0 l/m 4,3 km/h (1 Bft) SO 135 -0,3 C 3,0 C 0,0 km/h (0 Bft)
21.02.2020 05:02 4,6 C 3,0 C 3,0 C 79 % 1017,4 hPa 0,0 l/m 4,8 km/h (1 Bft) SW 225 -0,3 C 1,9 C 6,0 km/h (2 Bft)
21.02.2020 05:00 4,6 C 3,0 C 3,0 C 79 % 1017,4 hPa 0,0 l/m 4,6 km/h (1 Bft) W-SW 247 -0,3 C 2,0 C 6,8 km/h (2 Bft)
21.02.2020 04:58 4,6 C 3,0 C 3,0 C 79 % 1017,4 hPa 0,0 l/m 4,1 km/h (1 Bft) NW 315 -0,3 C 3,0 C 5,1 km/h (1 Bft)
21.02.2020 04:56 4,6 C 2,9 C 2,9 C 80 % 1017,4 hPa 0,1 l/m 4,1 km/h (1 Bft) N-NW 337 -0,2 C 2,9 C 6,5 km/h (2 Bft)
21.02.2020 04:54 4,6 C 2,8 C 2,9 C 80 % 1017,4 hPa 0,0 l/m 3,9 km/h (1 Bft) W-SW 247 -0,2 C 2,9 C 5,1 km/h (1 Bft)
21.02.2020 04:52 4,6 C 2,8 C 2,9 C 80 % 1017,4 hPa 0,0 l/m 3,4 km/h (1 Bft) NW 315 -0,2 C 2,9 C 12,6 km/h (3 Bft)
21.02.2020 04:50 4,6 C 2,7 C 3,0 C 79 % 1017,4 hPa 0,0 l/m 2,7 km/h (1 Bft) S 180 -0,3 C 3,0 C 3,1 km/h (1 Bft)
21.02.2020 04:48 4,6 C 2,8 C 3,0 C 79 % 1017,4 hPa 0,0 l/m 3,9 km/h (1 Bft) W-SW 247 -0,3 C 3,0 C 0,0 km/h (0 Bft)
21.02.2020 04:46 4,6 C 2,9 C 3,0 C 79 % 1017,4 hPa 0,0 l/m 4,6 km/h (1 Bft) W 270 -0,3 C 2,0 C 17,4 km/h (3 Bft)
21.02.2020 04:44 4,6 C 2,9 C 3,0 C 79 % 1017,4 hPa 0,0 l/m 5,3 km/h (1 Bft) W-NW 292 -0,3 C 1,7 C 8,7 km/h (2 Bft)
21.02.2020 04:42 4,5 C 3,0 C 3,0 C 79 % 1017,7 hPa 0,0 l/m 6,8 km/h (2 Bft) SW 225 -0,3 C 1,1 C 4,1 km/h (1 Bft)
21.02.2020 04:40 4,5 C 3,1 C 3,0 C 79 % 1017,7 hPa 0,0 l/m 7,5 km/h (2 Bft) S-SO 157 -0,3 C 0,9 C 9,9 km/h (2 Bft)
21.02.2020 04:38 4,5 C 3,3 C 3,0 C 79 % 1017,7 hPa 0,0 l/m 8,2 km/h (2 Bft) W-SW 247 -0,3 C 0,7 C 11,1 km/h (2 Bft)
21.02.2020 04:36 4,5 C 3,3 C 2,9 C 80 % 1017,7 hPa 0,0 l/m 8,4 km/h (2 Bft) W 270 -0,2 C 0,6 C 20,5 km/h (4 Bft)
21.02.2020 04:34 4,5 C 3,3 C 2,8 C 80 % 1017,7 hPa 0,0 l/m 8,4 km/h (2 Bft) NW 315 -0,3 C 0,4 C 12,6 km/h (3 Bft)
21.02.2020 04:32 4,5 C 3,4 C 2,8 C 80 % 1017,7 hPa 0,0 l/m 8,0 km/h (2 Bft) SW 225 -0,3 C 0,6 C 8,7 km/h (2 Bft)
21.02.2020 04:30 4,5 C 3,5 C 2,7 C 80 % 1017,7 hPa 0,0 l/m 8,0 km/h (2 Bft) SW 225 -0,4 C 0,4 C 10,6 km/h (2 Bft)
21.02.2020 04:28 4,5 C 3,4 C 2,5 C 80 % 1017,7 hPa 0,0 l/m 7,0 km/h (2 Bft) W-NW 292 -0,6 C 0,5 C 5,3 km/h (1 Bft)
21.02.2020 04:26 4,5 C 3,2 C 2,2 C 80 % 1017,7 hPa 0,0 l/m 6,5 km/h (2 Bft) S-SW 202 -0,9 C 0,3 C 20,3 km/h (4 Bft)
21.02.2020 04:24 4,6 C 3,1 C 2,1 C 80 % 1017,7 hPa 0,0 l/m 5,6 km/h (1 Bft) W-NW 292 -1,0 C 0,5 C 11,6 km/h (2 Bft)
21.02.2020 04:22 4,6 C 2,9 C 2,0 C 80 % 1017,6 hPa 0,0 l/m 5,8 km/h (2 Bft) S-SO 157 -1,1 C 0,4 C 7,0 km/h (2 Bft)
21.02.2020 04:20 4,6 C 2,8 C 1,9 C 80 % 1017,6 hPa 0,0 l/m 5,8 km/h (2 Bft) S 180 -1,2 C 0,2 C 9,2 km/h (2 Bft)
21.02.2020 04:18 4,6 C 2,6 C 1,8 C 80 % 1017,6 hPa 0,0 l/m 5,1 km/h (1 Bft) W-SW 247 -1,3 C 0,4 C 5,1 km/h (1 Bft)
21.02.2020 04:16 4,6 C 2,5 C 1,7 C 80 % 1017,6 hPa 0,0 l/m 5,8 km/h (2 Bft) SO 135 -1,4 C 0,0 C 15,9 km/h (3 Bft)
21.02.2020 04:14 4,7 C 2,3 C 1,5 C 80 % 1017,6 hPa 0,0 l/m 5,3 km/h (1 Bft) SW 225 -1,6 C -0,0 C 5,6 km/h (1 Bft)
21.02.2020 04:12 4,7 C 2,2 C 1,4 C 80 % 1017,6 hPa 0,0 l/m 5,6 km/h (1 Bft) W 270 -1,7 C -0,3 C 6,3 km/h (2 Bft)
21.02.2020 04:10 4,7 C 1,9 C 1,3 C 80 % 1017,6 hPa 0,0 l/m 5,6 km/h (1 Bft) SW 225 -1,8 C -0,4 C 8,7 km/h (2 Bft)
21.02.2020 04:08 4,7 C 1,8 C 1,2 C 80 % 1017,6 hPa 0,0 l/m 5,1 km/h (1 Bft) W-SW 247 -1,9 C -0,3 C 6,8 km/h (2 Bft)
21.02.2020 04:06 4,7 C 2,0 C 1,2 C 80 % 1017,6 hPa 0,0 l/m 5,1 km/h (1 Bft) W 270 -1,9 C -0,3 C 6,8 km/h (2 Bft)
21.02.2020 04:04 4,7 C 2,2 C 1,2 C 80 % 1017,6 hPa 0,0 l/m 4,6 km/h (1 Bft) W-SW 247 -1,9 C -0,0 C 6,0 km/h (2 Bft)
21.02.2020 04:02 4,7 C 2,2 C 1,1 C 80 % 1017,6 hPa 0,0 l/m 3,9 km/h (1 Bft) S-SW 202 -2,0 C 1,1 C 4,1 km/h (1 Bft)
21.02.2020 04:00 4,7 C 2,2 C 0,9 C 80 % 1017,6 hPa 0,0 l/m 2,9 km/h (1 Bft) SW 225 -2,2 C 0,9 C 3,9 km/h (1 Bft)
21.02.2020 03:58 4,7 C 1,9 C 0,9 C 80 % 1017,6 hPa 0,0 l/m 2,4 km/h (1 Bft) S-SW 202 -2,2 C 0,9 C 5,1 km/h (1 Bft)
21.02.2020 03:56 4,7 C 1,8 C 0,9 C 80 % 1017,6 hPa 0,0 l/m 1,9 km/h (1 Bft) S-SO 157 -2,2 C 0,9 C 15,7 km/h (3 Bft)
21.02.2020 03:54 4,7 C 1,8 C 0,7 C 80 % 1017,6 hPa 0,0 l/m 1,2 km/h (1 Bft) S 180 -2,3 C 0,7 C 6,0 km/h (2 Bft)
21.02.2020 03:52 4,7 C 1,6 C 0,6 C 80 % 1017,6 hPa 0,0 l/m 0,7 km/h (0 Bft) O 90 -2,4 C 0,6 C 4,6 km/h (1 Bft)
21.02.2020 03:50 4,7 C 1,4 C 0,5 C 80 % 1017,6 hPa 0,0 l/m 0,5 km/h (0 Bft) SW 225 -2,5 C 0,5 C 0,0 km/h (0 Bft)
21.02.2020 03:48 4,7 C 1,2 C 0,5 C 79 % 1017,6 hPa 0,0 l/m 0,2 km/h (0 Bft) W-SW 247 -2,7 C 0,5 C 0,0 km/h (0 Bft)
21.02.2020 03:46 4,7 C 1,4 C 0,5 C 79 % 1017,6 hPa 0,0 l/m 0,5 km/h (0 Bft) S 180 -2,7 C 0,5 C 0,0 km/h (0 Bft)
21.02.2020 03:44 4,7 C 1,2 C 0,5 C 79 % 1017,6 hPa 0,0 l/m 0,7 km/h (0 Bft) S-SW 202 -2,7 C 0,5 C 0,0 km/h (0 Bft)
21.02.2020 03:42 4,7 C 1,2 C 0,5 C 79 % 1017,6 hPa 0,0 l/m 1,2 km/h (1 Bft) S-SO 157 -2,7 C 0,5 C 2,7 km/h (1 Bft)
21.02.2020 03:40 4,7 C 1,0 C 0,5 C 79 % 1017,6 hPa 0,0 l/m 1,0 km/h (0 Bft) W-SW 247 -2,7 C 0,5 C 0,0 km/h (0 Bft)
21.02.2020 03:38 4,7 C 0,8 C 0,5 C 79 % 1017,6 hPa 0,0 l/m 1,2 km/h (1 Bft) W 270 -2,7 C 0,5 C 0,0 km/h (0 Bft)
21.02.2020 03:36 4,7 C 0,9 C 0,5 C 79 % 1017,6 hPa 0,0 l/m 1,2 km/h (1 Bft) W-NW 292 -2,7 C 0,5 C 6,3 km/h (2 Bft)
21.02.2020 03:34 4,7 C 0,9 C 0,4 C 79 % 1017,6 hPa 0,0 l/m 1,0 km/h (0 Bft) SW 225 -2,8 C 0,4 C 4,3 km/h (1 Bft)
21.02.2020 03:32 4,7 C 0,8 C 0,4 C 79 % 1017,6 hPa 0,0 l/m 0,7 km/h (0 Bft) W 270 -2,8 C 0,4 C 6,3 km/h (2 Bft)
21.02.2020 03:30 4,7 C 0,9 C 0,5 C 79 % 1017,6 hPa 0,0 l/m 0,7 km/h (0 Bft) W 270 -2,7 C 0,5 C 0,0 km/h (0 Bft)
21.02.2020 03:28 4,7 C 1,1 C 0,4 C 79 % 1017,6 hPa 0,0 l/m 1,0 km/h (0 Bft) S 180 -2,8 C 0,4 C 0,0 km/h (0 Bft)
21.02.2020 03:26 4,7 C 1,3 C 0,4 C 79 % 1017,6 hPa 0,0 l/m 1,2 km/h (1 Bft) W-SW 247 -2,8 C 0,4 C 5,8 km/h (2 Bft)
21.02.2020 03:24 4,7 C 1,3 C 0,4 C 79 % 1017,6 hPa 0,0 l/m 1,2 km/h (1 Bft) S 180 -2,8 C 0,4 C 0,0 km/h (0 Bft)
21.02.2020 03:22 4,7 C 1,3 C 0,4 C 79 % 1017,4 hPa 0,0 l/m 1,2 km/h (1 Bft) NW 315 -2,8 C 0,4 C 3,4 km/h (1 Bft)
21.02.2020 03:20 4,7 C 1,3 C 0,4 C 79 % 1017,4 hPa 0,0 l/m 0,7 km/h (0 Bft) N-NW 337 -2,8 C 0,4 C 0,0 km/h (0 Bft)
21.02.2020 03:18 4,7 C 1,3 C 0,3 C 79 % 1017,4 hPa 0,0 l/m 0,2 km/h (0 Bft) W-NW 292 -2,9 C 0,3 C 0,0 km/h (0 Bft)
21.02.2020 03:16 4,7 C 1,3 C 0,3 C 79 % 1017,4 hPa 0,0 l/m 0,2 km/h (0 Bft) W 270 -2,9 C 0,3 C 4,8 km/h (1 Bft)
21.02.2020 03:14 4,7 C 1,3 C 0,3 C 79 % 1017,4 hPa 0,0 l/m 0,5 km/h (0 Bft) S 180 -2,9 C 0,3 C 0,0 km/h (0 Bft)
21.02.2020 03:12 4,7 C 1,3 C 0,3 C 79 % 1017,4 hPa 0,0 l/m 0,7 km/h (0 Bft) SW 225 -2,9 C 0,3 C 0,0 km/h (0 Bft)
21.02.2020 03:10 4,7 C 1,3 C 0,2 C 79 % 1017,4 hPa 0,0 l/m 0,7 km/h (0 Bft) W 270 -3,0 C 0,2 C 0,0 km/h (0 Bft)
21.02.2020 03:08 4,7 C 1,3 C 0,2 C 79 % 1017,4 hPa 0,0 l/m 0,7 km/h (0 Bft) O 90 -3,0 C 0,2 C 0,0 km/h (0 Bft)
21.02.2020 03:06 4,7 C 1,3 C 0,2 C 79 % 1017,4 hPa 0,0 l/m 0,7 km/h (0 Bft) SO 135 -3,0 C 0,2 C 0,0 km/h (0 Bft)
21.02.2020 03:04 4,8 C 1,1 C 0,0 C 79 % 1017,4 hPa 0,0 l/m 0,2 km/h (0 Bft) W-SW 247 -3,2 C 0,0 C 3,6 km/h (1 Bft)
21.02.2020 03:02 4,8 C 1,1 C 0,0 C 79 % 1017,7 hPa 0,0 l/m 0,2 km/h (0 Bft) W-SW 247 -3,2 C 0,0 C 3,6 km/h (1 Bft)
21.02.2020 03:00 4,8 C 1,1 C 0,0 C 79 % 1017,7 hPa 0,0 l/m 0,0 km/h (0 Bft) SW 225 -3,2 C 0,0 C 0,0 km/h (0 Bft)
21.02.2020 02:58 4,8 C 1,0 C -0,1 C 79 % 1017,7 hPa 0,0 l/m 0,5 km/h (0 Bft) SW 225 -3,3 C -0,1 C 0,0 km/h (0 Bft)
21.02.2020 02:56 4,8 C 1,0 C -0,1 C 79 % 1017,7 hPa 0,0 l/m 0,5 km/h (0 Bft) W-SW 247 -3,3 C -0,1 C 0,0 km/h (0 Bft)
21.02.2020 02:54 4,8 C 1,0 C -0,1 C 79 % 1017,7 hPa 0,0 l/m 0,7 km/h (0 Bft) NW 315 -3,3 C -0,1 C 0,0 km/h (0 Bft)
21.02.2020 02:52 4,8 C 0,9 C -0,2 C 79 % 1017,7 hPa 0,0 l/m 1,0 km/h (0 Bft) N-NW 337 -3,4 C -0,2 C 0,0 km/h (0 Bft)
21.02.2020 02:50 4,8 C 0,8 C -0,4 C 79 % 1017,7 hPa 0,0 l/m 1,0 km/h (0 Bft) NW 315 -3,6 C -0,4 C 2,4 km/h (1 Bft)
21.02.2020 02:48 4,8 C 0,8 C -0,4 C 78 % 1017,7 hPa 0,0 l/m 0,7 km/h (0 Bft) N-NW 337 -3,8 C -0,4 C 3,4 km/h (1 Bft)
21.02.2020 02:46 4,8 C 0,8 C -0,5 C 78 % 1017,7 hPa 0,0 l/m 0,5 km/h (0 Bft) W-SW 247 -3,9 C -0,5 C 0,0 km/h (0 Bft)
21.02.2020 02:44 4,8 C 0,7 C -0,5 C 78 % 1017,7 hPa 0,0 l/m 0,5 km/h (0 Bft) S-SW 202 -3,9 C -0,5 C 2,4 km/h (1 Bft)
21.02.2020 02:42 4,8 C 0,6 C -0,7 C 78 % 1017,7 hPa 0,0 l/m 0,2 km/h (0 Bft) S 180 -4,0 C -0,7 C 3,6 km/h (1 Bft)
21.02.2020 02:40 4,8 C 0,5 C -0,7 C 78 % 1017,7 hPa 0,0 l/m 0,0 km/h (0 Bft) SW 225 -4,0 C -0,7 C 0,0 km/h (0 Bft)
21.02.2020 02:38 4,8 C 0,2 C -0,9 C 78 % 1017,7 hPa 0,0 l/m 0,0 km/h (0 Bft) W 270 -4,2 C -0,9 C 0,0 km/h (0 Bft)
21.02.2020 02:36 4,8 C 0,0 C -1,1 C 78 % 1017,7 hPa 0,0 l/m 0,0 km/h (0 Bft) SW 225 -4,4 C -1,1 C 0,0 km/h (0 Bft)
21.02.2020 02:34 4,8 C -0,8 C -1,3 C 78 % 1017,7 hPa 0,0 l/m 0,0 km/h (0 Bft) S 180 -4,6 C -1,3 C 0,0 km/h (0 Bft)
21.02.2020 02:32 4,8 C -1,5 C -1,4 C 78 % 1017,7 hPa 0,0 l/m 0,0 km/h (0 Bft) S 180 -4,7 C -1,4 C 0,0 km/h (0 Bft)
21.02.2020 02:30 4,8 C -1,6 C -1,4 C 78 % 1017,7 hPa 0,0 l/m 0,0 km/h (0 Bft) N-NW 337 -4,7 C -1,4 C 0,0 km/h (0 Bft)
21.02.2020 02:28 4,8 C -1,9 C -1,4 C 78 % 1017,7 hPa 0,0 l/m 0,0 km/h (0 Bft) W 270 -4,7 C -1,4 C 0,0 km/h (0 Bft)
21.02.2020 02:26 4,8 C -2,3 C -1,3 C 78 % 1017,7 hPa 0,0 l/m 0,0 km/h (0 Bft) N-NW 337 -4,6 C -1,3 C 0,0 km/h (0 Bft)
21.02.2020 02:24 4,8 C -2,3 C -1,3 C 78 % 1017,7 hPa 0,0 l/m 0,0 km/h (0 Bft) W-SW 247 -4,6 C -1,3 C 0,0 km/h (0 Bft)
21.02.2020 02:22 4,8 C -1,9 C -1,1 C 78 % 1018,0 hPa 0,0 l/m 0,0 km/h (0 Bft) W-SW 247 -4,4 C -1,1 C 0,0 km/h (0 Bft)
21.02.2020 02:20 4,8 C -2,0 C -1,1 C 78 % 1018,0 hPa 0,0 l/m 0,0 km/h (0 Bft) SW 225 -4,4 C -1,1 C 0,0 km/h (0 Bft)
21.02.2020 02:18 4,8 C -1,8 C -1,0 C 78 % 1018,0 hPa 0,0 l/m 0,0 km/h (0 Bft) NW 315 -4,3 C -1,0 C 0,0 km/h (0 Bft)
21.02.2020 02:16 4,8 C -1,5 C -1,0 C 78 % 1018,0 hPa 0,0 l/m 0,0 km/h (0 Bft) W 270 -4,3 C -1,0 C 0,0 km/h (0 Bft)
21.02.2020 02:14 4,8 C -1,1 C -0,9 C 78 % 1018,0 hPa 0,0 l/m 0,0 km/h (0 Bft) S-SW 202 -4,2 C -0,9 C 0,0 km/h (0 Bft)
21.02.2020 02:12 5,0 C -1,3 C -0,9 C 78 % 1018,0 hPa 0,0 l/m 0,0 km/h (0 Bft) N-NW 337 -4,2 C -0,9 C 0,0 km/h (0 Bft)
21.02.2020 02:10 5,0 C -1,0 C -0,8 C 78 % 1018,0 hPa 0,0 l/m 0,0 km/h (0 Bft) W 270 -4,1 C -0,8 C 0,0 km/h (0 Bft)
21.02.2020 02:08 5,0 C -0,9 C -0,8 C 78 % 1018,0 hPa 0,0 l/m 0,0 km/h (0 Bft) S 180 -4,1 C -0,8 C 0,0 km/h (0 Bft)
21.02.2020 02:06 5,0 C -0,8 C -0,8 C 78 % 1018,0 hPa 0,0 l/m 0,2 km/h (0 Bft) NW 315 -4,1 C -0,8 C 0,0 km/h (0 Bft)
21.02.2020 02:04 5,0 C -0,9 C -0,8 C 78 % 1018,0 hPa 0,0 l/m 0,2 km/h (0 Bft) W-SW 247 -4,1 C -0,8 C 0,0 km/h (0 Bft)
21.02.2020 02:02 5,0 C -0,9 C -0,8 C 78 % 1018,4 hPa 0,0 l/m 0,5 km/h (0 Bft) S-SW 202 -4,1 C -0,8 C 0,0 km/h (0 Bft)
21.02.2020 02:00 5,0 C -0,8 C -0,8 C 78 % 1018,4 hPa 0,0 l/m 0,5 km/h (0 Bft) W 270 -4,1 C -0,8 C 0,0 km/h (0 Bft)
21.02.2020 01:58 5,0 C -0,8 C -0,8 C 78 % 1018,4 hPa 0,0 l/m 0,5 km/h (0 Bft) W-SW 247 -4,1 C -0,8 C 0,0 km/h (0 Bft)
21.02.2020 01:56 5,0 C -0,8 C -0,8 C 77 % 1018,4 hPa 0,0 l/m 0,5 km/h (0 Bft) SW 225 -4,3 C -0,8 C 4,6 km/h (1 Bft)
21.02.2020 01:54 5,0 C -0,6 C -0,7 C 77 % 1018,4 hPa 0,0 l/m 0,2 km/h (0 Bft) W-NW 292 -4,2 C -0,7 C 0,0 km/h (0 Bft)
21.02.2020 01:52 5,0 C -0,5 C -0,7 C 77 % 1018,4 hPa 0,0 l/m 0,2 km/h (0 Bft) W-SW 247 -4,2 C -0,7 C 2,9 km/h (1 Bft)
21.02.2020 01:50 5,0 C -0,6 C -0,7 C 77 % 1018,4 hPa 0,0 l/m 0,5 km/h (0 Bft) W-SW 247 -4,2 C -0,7 C 0,0 km/h (0 Bft)
21.02.2020 01:48 5,0 C -0,6 C -0,9 C 77 % 1018,4 hPa 0,0 l/m 0,5 km/h (0 Bft) SW 225 -4,4 C -0,9 C 0,0 km/h (0 Bft)
21.02.2020 01:46 5,0 C -0,8 C -1,0 C 77 % 1018,4 hPa 0,0 l/m 0,5 km/h (0 Bft) S-SO 157 -4,5 C -1,0 C 3,9 km/h (1 Bft)
21.02.2020 01:44 5,0 C -0,8 C -1,0 C 77 % 1018,4 hPa 0,0 l/m 0,5 km/h (0 Bft) S-SO 157 -4,5 C -1,0 C 0,0 km/h (0 Bft)
21.02.2020 01:42 5,0 C -0,6 C -1,0 C 77 % 1018,4 hPa 0,0 l/m 0,5 km/h (0 Bft) SW 225 -4,5 C -1,0 C 0,0 km/h (0 Bft)
21.02.2020 01:40 5,0 C -0,8 C -1,1 C 77 % 1018,4 hPa 0,0 l/m 0,2 km/h (0 Bft) S-SW 202 -4,6 C -1,1 C 2,9 km/h (1 Bft)
21.02.2020 01:38 5,0 C -1,1 C -1,4 C 76 % 1018,4 hPa 0,0 l/m 0,0 km/h (0 Bft) S 180 -5,1 C -1,4 C 0,0 km/h (0 Bft)
21.02.2020 01:36 5,1 C -1,3 C -1,4 C 76 % 1018,4 hPa 0,0 l/m 0,0 km/h (0 Bft) W-SW 247 -5,1 C -1,4 C 0,0 km/h (0 Bft)
21.02.2020 01:34 5,1 C -2,2 C -1,8 C 76 % 1018,4 hPa 0,0 l/m 0,0 km/h (0 Bft) W-SW 247 -5,5 C -1,8 C 0,0 km/h (0 Bft)
21.02.2020 01:32 5,1 C -2,4 C -1,8 C 76 % 1018,4 hPa 0,0 l/m 0,0 km/h (0 Bft) W 270 -5,5 C -1,8 C 0,0 km/h (0 Bft)
21.02.2020 01:30 5,1 C -2,5 C -1,8 C 76 % 1018,4 hPa 0,0 l/m 0,0 km/h (0 Bft) S 180 -5,5 C -1,8 C 0,0 km/h (0 Bft)
21.02.2020 01:28 5,1 C -2,7 C -1,8 C 76 % 1018,4 hPa 0,0 l/m 0,0 km/h (0 Bft) N-NW 337 -5,5 C -1,8 C 0,0 km/h (0 Bft)
21.02.2020 01:26 5,1 C -2,4 C -1,8 C 76 % 1018,4 hPa 0,0 l/m 0,0 km/h (0 Bft) N-NW 337 -5,5 C -1,8 C 0,0 km/h (0 Bft)
21.02.2020 01:24 5,1 C -2,3 C -1,8 C 76 % 1018,4 hPa 0,0 l/m 0,0 km/h (0 Bft) N-NW 337 -5,5 C -1,8 C 2,4 km/h (1 Bft)
21.02.2020 01:22 5,1 C -2,5 C -1,7 C 76 % 1018,6 hPa 0,0 l/m 0,0 km/h (0 Bft) W-SW 247 -5,4 C -1,7 C 0,0 km/h (0 Bft)
21.02.2020 01:20 5,1 C -2,4 C -1,7 C 76 % 1018,6 hPa 0,0 l/m 0,0 km/h (0 Bft) W-SW 247 -5,4 C -1,7 C 0,0 km/h (0 Bft)
21.02.2020 01:18 5,1 C -2,4 C -1,7 C 76 % 1018,6 hPa 0,0 l/m 0,0 km/h (0 Bft) W-SW 247 -5,4 C -1,7 C 0,0 km/h (0 Bft)
21.02.2020 01:16 5,1 C -2,7 C -1,7 C 76 % 1018,6 hPa 0,0 l/m 0,0 km/h (0 Bft) S 180 -5,4 C -1,7 C 0,0 km/h (0 Bft)
21.02.2020 01:14 5,1 C -2,3 C -1,5 C 76 % 1018,6 hPa 0,0 l/m 0,0 km/h (0 Bft) S 180 -5,2 C -1,5 C 0,0 km/h (0 Bft)
21.02.2020 01:12 5,1 C -2,3 C -1,5 C 76 % 1018,6 hPa 0,0 l/m 0,0 km/h (0 Bft) S 180 -5,2 C -1,5 C 0,0 km/h (0 Bft)
21.02.2020 01:10 5,1 C -2,8 C -1,7 C 76 % 1018,6 hPa 0,0 l/m 0,0 km/h (0 Bft) SW 225 -5,4 C -1,7 C 0,0 km/h (0 Bft)
21.02.2020 01:08 5,1 C -2,4 C -1,5 C 76 % 1018,6 hPa 0,0 l/m 0,0 km/h (0 Bft) W-SW 247 -5,2 C -1,5 C 0,0 km/h (0 Bft)
21.02.2020 01:06 5,1 C -2,8 C -1,5 C 76 % 1018,6 hPa 0,0 l/m 0,0 km/h (0 Bft) W-SW 247 -5,2 C -1,5 C 0,0 km/h (0 Bft)
21.02.2020 01:04 5,1 C -2,5 C -1,5 C 76 % 1018,6 hPa 0,0 l/m 0,0 km/h (0 Bft) W-SW 247 -5,2 C -1,5 C 0,0 km/h (0 Bft)
21.02.2020 01:02 5,1 C -2,5 C -1,5 C 76 % 1019,0 hPa 0,0 l/m 0,0 km/h (0 Bft) W-SW 247 -5,2 C -1,5 C 0,0 km/h (0 Bft)
21.02.2020 01:00 5,2 C -2,4 C -1,5 C 76 % 1019,0 hPa 0,0 l/m 0,0 km/h (0 Bft) W 270 -5,2 C -1,5 C 0,0 km/h (0 Bft)
21.02.2020 00:58 5,2 C -2,2 C -1,5 C 76 % 1019,0 hPa 0,0 l/m 0,0 km/h (0 Bft) W 270 -5,2 C -1,5 C 0,0 km/h (0 Bft)
21.02.2020 00:56 5,2 C -2,4 C -1,5 C 76 % 1019,0 hPa 0,0 l/m 0,0 km/h (0 Bft) W 270 -5,2 C -1,5 C 0,0 km/h (0 Bft)
21.02.2020 00:54 5,2 C -2,0 C -1,4 C 76 % 1019,0 hPa 0,0 l/m 0,0 km/h (0 Bft) W 270 -5,1 C -1,4 C 0,0 km/h (0 Bft)
21.02.2020 00:52 5,2 C -1,8 C -1,4 C 75 % 1019,0 hPa 0,0 l/m 0,0 km/h (0 Bft) W-SW 247 -5,2 C -1,4 C 0,0 km/h (0 Bft)
21.02.2020 00:50 5,2 C -2,4 C -1,5 C 75 % 1019,0 hPa 0,0 l/m 0,0 km/h (0 Bft) W-SW 247 -5,3 C -1,5 C 0,0 km/h (0 Bft)
21.02.2020 00:48 5,2 C -2,7 C -1,5 C 75 % 1019,0 hPa 0,0 l/m 0,0 km/h (0 Bft) W-SW 247 -5,3 C -1,5 C 0,0 km/h (0 Bft)
21.02.2020 00:46 5,2 C -2,5 C -1,4 C 75 % 1019,0 hPa 0,0 l/m 0,0 km/h (0 Bft) W-SW 247 -5,2 C -1,4 C 0,0 km/h (0 Bft)
21.02.2020 00:44 5,2 C -2,4 C -1,4 C 75 % 1019,0 hPa 0,0 l/m 0,0 km/h (0 Bft) W-SW 247 -5,2 C -1,4 C 0,0 km/h (0 Bft)
21.02.2020 00:42 5,2 C -2,4 C -1,4 C 75 % 1019,0 hPa 0,0 l/m 0,0 km/h (0 Bft) SW 225 -5,2 C -1,4 C 0,0 km/h (0 Bft)
21.02.2020 00:40 5,2 C -1,8 C -1,3 C 75 % 1019,0 hPa 0,0 l/m 0,0 km/h (0 Bft) SW 225 -5,1 C -1,3 C 0,0 km/h (0 Bft)
21.02.2020 00:38 5,2 C -1,5 C -1,3 C 75 % 1019,0 hPa 0,0 l/m 0,0 km/h (0 Bft) SW 225 -5,1 C -1,3 C 0,0 km/h (0 Bft)
21.02.2020 00:36 5,2 C -1,8 C -1,4 C 75 % 1019,0 hPa 0,0 l/m 0,0 km/h (0 Bft) SW 225 -5,2 C -1,4 C 0,0 km/h (0 Bft)
21.02.2020 00:34 5,2 C -2,7 C -1,4 C 75 % 1019,0 hPa 0,0 l/m 0,0 km/h (0 Bft) W-SW 247 -5,2 C -1,4 C 0,0 km/h (0 Bft)
21.02.2020 00:32 5,1 C -2,7 C -1,3 C 75 % 1019,0 hPa 0,0 l/m 0,0 km/h (0 Bft) W-SW 247 -5,1 C -1,3 C 0,0 km/h (0 Bft)
21.02.2020 00:30 5,1 C -2,5 C -1,3 C 75 % 1019,0 hPa 0,0 l/m 0,0 km/h (0 Bft) W 270 -5,1 C -1,3 C 0,0 km/h (0 Bft)
21.02.2020 00:28 5,3 C -2,2 C -1,2 C 75 % 1019,0 hPa 0,0 l/m 0,0 km/h (0 Bft) W 270 -5,0 C -1,2 C 0,0 km/h (0 Bft)
21.02.2020 00:26 5,3 C -2,4 C -1,2 C 75 % 1019,0 hPa 0,0 l/m 0,0 km/h (0 Bft) W 270 -5,0 C -1,2 C 0,0 km/h (0 Bft)
21.02.2020 00:24 5,3 C -2,4 C -1,0 C 75 % 1019,0 hPa 0,0 l/m 0,0 km/h (0 Bft) W 270 -4,9 C -1,0 C 0,0 km/h (0 Bft)
21.02.2020 00:22 5,3 C -2,5 C -1,0 C 75 % 1019,2 hPa 0,0 l/m 0,0 km/h (0 Bft) W 270 -4,9 C -1,0 C 0,0 km/h (0 Bft)
21.02.2020 00:20 5,3 C -2,5 C -1,0 C 75 % 1019,2 hPa 0,0 l/m 0,0 km/h (0 Bft) W 270 -4,9 C -1,0 C 0,0 km/h (0 Bft)
21.02.2020 00:18 5,3 C -2,2 C -1,0 C 75 % 1019,2 hPa 0,0 l/m 0,0 km/h (0 Bft) W 270 -4,9 C -1,0 C 0,0 km/h (0 Bft)
21.02.2020 00:16 5,3 C -2,3 C -1,0 C 75 % 1019,2 hPa 0,0 l/m 0,0 km/h (0 Bft) W 270 -4,9 C -1,0 C 0,0 km/h (0 Bft)
21.02.2020 00:14 5,3 C -2,2 C -0,9 C 75 % 1019,2 hPa 0,0 l/m 0,0 km/h (0 Bft) W 270 -4,8 C -0,9 C 0,0 km/h (0 Bft)
21.02.2020 00:12 5,3 C -1,8 C -0,8 C 75 % 1019,2 hPa 0,0 l/m 0,2 km/h (0 Bft) W 270 -4,7 C -0,8 C 0,0 km/h (0 Bft)
21.02.2020 00:10 5,3 C -1,8 C -0,8 C 75 % 1019,2 hPa 0,0 l/m 0,2 km/h (0 Bft) W 270 -4,7 C -0,8 C 0,0 km/h (0 Bft)
21.02.2020 00:08 5,3 C -1,8 C -0,8 C 75 % 1019,2 hPa 0,0 l/m 0,2 km/h (0 Bft) W 270 -4,7 C -0,8 C 0,0 km/h (0 Bft)
21.02.2020 00:06 5,3 C -1,8 C -0,8 C 75 % 1019,2 hPa 0,0 l/m 0,2 km/h (0 Bft) W 270 -4,7 C -0,8 C 0,0 km/h (0 Bft)
21.02.2020 00:04 5,3 C -1,8 C -0,8 C 75 % 1019,2 hPa 0,0 l/m 0,2 km/h (0 Bft) W 270 -4,7 C -0,8 C 0,0 km/h (0 Bft)
21.02.2020 00:02 5,3 C -1,5 C -0,8 C 75 % 1019,4 hPa 0,0 l/m 0,2 km/h (0 Bft) W 270 -4,7 C -0,8 C 2,4 km/h (1 Bft)
21.02.2020 00:00 5,4 C -1,3 C -0,8 C 75 % 1019,4 hPa 0,0 l/m 0,2 km/h (0 Bft) W 270 -4,7 C -0,8 C 0,0 km/h (0 Bft)
_ Min-Zeit 04:26 01:06 01:24 00:00 05:44 - 00:14 - - 01:24 01:24 00:00
Minimum _ 4,5 C -2,8 C -1,8 C 75 % 1017,2 hPa - 0,0 km/h (0 Bft) - - -5,5 C -1,8 C 0,0 km/h (0 Bft)
_ Max-Zeit 00:00 08:14 08:14 05:56 08:24 04:56 07:36 - - 08:10 08:14 06:46
Maximum _ 5,4 C 5,6 C 5,8 C 82 % 1022,4 hPa 0,1 l/m 11,1 km/h
W-SW (2 Bft)
- - 2,2 C 3,8 C 35,0 km/h
S (5 Bft)
Durchschnitt _ 4,8 C 1,6 C 1,8 C 79 % 1018,4 hPa #0,4 l/m 4,2 km/h (1 Bft) W-SW - -1,5 C 0,9 C 6,6 km/h (2 Bft)